Satellite-Ground Cal/Val Region Overpasses Predictions

Prediction of Satellite NPP Overpassing Cal/Val Region: PacNW

Region Location: (Latitude: 10.00, Longitude: 139.50) to (Latitude: 22.70, Longitude: 165.60).

Table of predicted overpasses for the next 14.0 days since TLE Epoch: 6/2/2013
Interval Starting Time Starting Location Ending Time Ending Location
1 06/03/2013 02:45:20 ( 10.00, 158.19) 06/03/2013 02:48:56 ( 22.68, 155.17)
2 06/03/2013 15:17:13 ( 22.70, 155.44) 06/03/2013 15:20:49 ( 10.02, 152.42)
3 06/04/2013 02:26:19 ( 10.03, 162.95) 06/04/2013 02:29:54 ( 22.65, 159.94)
4 06/04/2013 14:58:11 ( 22.67, 160.20) 06/04/2013 15:01:46 ( 10.05, 157.19)
5 06/05/2013 02:09:50 ( 19.04, 165.59) 06/05/2013 02:10:52 ( 22.67, 164.69)
6 06/05/2013 03:48:46 ( 10.00, 142.34) 06/05/2013 03:52:09 ( 21.92, 139.51)
7 06/05/2013 14:39:10 ( 22.64, 164.95) 06/05/2013 14:42:45 ( 10.02, 161.94)
8 06/05/2013 16:20:39 ( 22.70, 139.59) 06/05/2013 16:20:45 ( 22.34, 139.50)
9 06/06/2013 03:29:45 ( 10.03, 147.09) 06/06/2013 03:33:20 ( 22.65, 144.09)
10 06/06/2013 16:01:37 ( 22.67, 144.34) 06/06/2013 16:05:12 ( 10.05, 141.34)
11 06/07/2013 03:10:43 ( 10.05, 151.85) 06/07/2013 03:14:18 ( 22.68, 148.84)
12 06/07/2013 15:42:35 ( 22.70, 149.11) 06/07/2013 15:46:11 ( 10.02, 146.09)
13 06/08/2013 02:51:41 ( 10.02, 156.62) 06/08/2013 02:55:16 ( 22.65, 153.61)
14 06/08/2013 15:23:33 ( 22.67, 153.87) 06/08/2013 15:27:08 ( 10.05, 150.86)
15 06/09/2013 02:32:39 ( 10.05, 161.37) 06/09/2013 02:36:14 ( 22.67, 158.36)
16 06/09/2013 15:04:32 ( 22.64, 158.62) 06/09/2013 15:08:07 ( 10.02, 155.61)
17 06/10/2013 02:14:17 ( 12.37, 165.60) 06/10/2013 02:17:12 ( 22.64, 163.13)
18 06/10/2013 03:55:07 ( 10.03, 140.76) 06/10/2013 03:56:39 ( 15.43, 139.51)
19 06/10/2013 14:45:29 ( 22.67, 163.39) 06/10/2013 14:49:04 ( 10.05, 160.38)
20 06/11/2013 03:36:05 ( 10.06, 145.52) 06/11/2013 03:39:40 ( 22.68, 142.51)
21 06/11/2013 14:29:29 ( 12.02, 165.59) 06/11/2013 14:30:03 ( 10.02, 165.13)
22 06/11/2013 16:07:57 ( 22.70, 142.78) 06/11/2013 16:11:33 ( 10.02, 139.76)
23 06/12/2013 03:17:03 ( 10.03, 150.28) 06/12/2013 03:20:38 ( 22.65, 147.28)
24 06/12/2013 15:48:56 ( 22.67, 147.53) 06/12/2013 15:52:31 ( 10.05, 144.53)
25 06/13/2013 02:58:01 ( 10.06, 155.04) 06/13/2013 03:01:36 ( 22.68, 152.03)
26 06/13/2013 15:29:53 ( 22.70, 152.30) 06/13/2013 15:33:29 ( 10.02, 149.28)
27 06/14/2013 02:38:59 ( 10.03, 159.80) 06/14/2013 02:42:34 ( 22.65, 156.80)
28 06/14/2013 15:10:52 ( 22.67, 157.05) 06/14/2013 15:14:27 ( 10.05, 154.05)
29 06/15/2013 02:19:56 ( 10.00, 164.57) 06/15/2013 02:23:32 ( 22.69, 161.55)
30 06/15/2013 14:51:49 ( 22.69, 161.82) 06/15/2013 14:55:25 ( 10.02, 158.80)
31 06/16/2013 03:42:25 ( 10.04, 143.95) 06/16/2013 03:46:00 ( 22.66, 140.94)
32 06/16/2013 14:33:56 ( 18.67, 165.59) 06/16/2013 14:36:23 ( 10.04, 163.57)


NCC Satellite Cal/Val Overpasses Prediction Service
